Regional Weather Roundup
Issued by NWS Grand Forks, ND

Home | Current Version | Previous Version | Text Only | Print | Product List | Glossary On
Versions: 1 2 3 4 5 6 7 8 9 10 11 12 13 14 15 16 17 18 19 20 21 22 23 24 25 26 27 28 29 30 31 32 33 34 35 36 37 38 39 40 41 42 43 44 45 46 47 48 49 50
000
ASUS43 KFGF 201631
RWRFGF
PRAIRIE TO PINES  WEATHER ROUNDUP
NATIONAL WEATHER SERVICE EASTERN NORTH DAKOTA/GRAND FORKS ND
1100 AM CDT THU JUL 20 2017

 **SATELLITE DATA USED TO AUGMENT SKY COVER AT AUTOMATED STATIONS**
 *****  WEATHER ACROSS EASTERN NORTH DAKOTA  *****

CITY           SKY/WX    TMP DP  RH WIND       PRES   REMARKS
GRAND FORKS    PTSUNNY   71  62  73 N7        30.03R
GRAND FRKS AFB FAIR      70  61  73 N6        30.04R
DEVILS LAKE    FAIR      74  59  59 NE8       30.04S
FARGO          FAIR      78  62  57 NE5       30.02S
WAHPETON ARPT  FAIR      72  68  88 E3        30.04S
$$

 ***** WEATHER ACROSS CENTRAL AND WESTERN NORTH DAKOTA  *****

CITY           SKY/WX    TMP DP  RH WIND       PRES   REMARKS
BISMARCK       FAIR      81  67  62 VRB5      30.03S
MINOT          FAIR      80  62  54 SE14      29.98F
JAMESTOWN      FAIR      78  60  53 SE10      30.04S
MINOT AFB      FAIR      75  63  67 SE13      29.97F
GARRISON         N/A     79  64  60 SE16      29.98F
WILLISTON        N/A     82  61  48 VRB5      29.95F
DICKINSON      FAIR      84  63  49 S18       29.98F
HETTINGER      FAIR      83  61  47 SE15      30.03F
$$

 *****  OTHER AIRPORT OBSERVATIONS IN OUR AREA  *****

CITY           SKY/WX    TMP DP  RH WIND       PRES   REMARKS
WALHALLA       NOT AVBL
GRAFTON AIRPOR FAIR      68  63  83 VRB6G12   30.04F
VALLEY CITY AR FAIR      77  59  53 S8        30.05F
CANDO          NOT AVBL
CAVALIER APRT  FAIR      68  57  68 S3        30.03F
GWINNER        SUNNY     75  68  78 CALM      30.05S
SHEYENNE NWR     N/A     78  64  62 E3        29.95S
ROLLA            N/A     70  61  73 S6        30.04F
 ***** THE ABOVE OBSERVATIONS ARE NON NWS ARE NOT QUALITY
       CONTROLLED AND MAY MIS-REPORT RAIN FOR SNOW...
$$

  *****  WEATHER ACROSS NORTHERN MINNESOTA  *****

CITY           SKY/WX    TMP DP  RH WIND       PRES   REMARKS
FLAG ISLAND    FAIR      70  48  46 N7        30.01S
WARROAD        FAIR      70  54  56 E6        30.03S
ROSEAU         FAIR      70  57  64 CALM      30.03R
HALLOCK        FAIR      72  57  60 CALM      30.02S
THF RVR FALLS  FAIR      73  58  59 CALM      30.04S
BAUDETTE       FAIR      71  54  54 NW9       30.02R
WASKISH        FAIR      73  61  64 CALM      30.02S
CROOKSTON      FAIR      73  61  64 CALM      30.04R
STEPHEN NDAWN    N/A     72  59  64 CALM        N/A
GREENBUSH NDAW   N/A     72  55  56 NW3         N/A
$$
  *****  WEATHER ACROSS CENTRAL AND WEST MINNESOTA  *****

CITY           SKY/WX    TMP DP  RH WIND       PRES   REMARKS
FOSSTON        FAIR      75  70  83 CALM      30.04S
BEMIDJI        FAIR      74  60  62 W3        30.03S
PARK RAPIDS    FAIR      80  62  54 VRB5      30.03S
ELBOW LAKE     PTSUNNY   75  69  81 CALM      30.05S
WADENA         FAIR      77  63  61 CALM      30.04S
DETROIT LAKES  FAIR      75  63  64 CALM      30.05S
MOORHEAD       FAIR      77  61  57 N5        30.03S
FERGUS FALLS   FAIR      75  64  69 CALM      30.03S
MORRIS MN      FAIR      79  70  73 CALM      30.03S
STAPLES        FAIR      75  64  69 SW5       30.05R
$$
  *****  WEATHER ELSEWHERE ACROSS MINNESOTA  *****

CITY           SKY/WX    TMP DP  RH WIND       PRES   REMARKS
DULUTH         FAIR      76  63  64 NW10      30.01R
INTRNTL FALLS  FAIR      74  58  57 NW10      30.00R
ELY            FAIR      75  57  53 W7G16     29.99S
CLOQUET        FAIR      77  59  53 N6        30.02S
WHEATON        FAIR      79  70  73 CALM      30.04F
BRAINERD       FAIR      77  64  64 CALM      30.03S
HIBBING        PTSUNNY   75  66  73 NW12      30.00S
ALEXANDRIA     FAIR      75  67  76 CALM      30.07R
SAINT CLOUD    FAIR      76  69  79 SW5       30.04R
MINNEAPOLIS    PTSUNNY   79  70  74 CALM      30.03R
$$

  *****  WEATHER ACROSS SOUTH DAKOTA  *****

CITY           SKY/WX    TMP DP  RH WIND       PRES   REMARKS
SIOUX FALLS    CLOUDY    81  69  67 E10       30.03R
BROOKINGS      FAIR      78  66  66 E10       30.04S
WATERTOWN      FAIR      80  65  59 E10       30.04R
HURON          FAIR      77  69  76 S7        30.04R
SISSETON         N/A     80  70  71 S5        30.02R
ABERDEEN       FAIR      80  69  69 S5        30.03F
MITCHELL       FAIR      80  69  69 SE9       30.04R
PIERRE         FAIR      81  65  58 SE7       30.03R
MOBRIDGE       FAIR      81  68  64 S9        30.02S
RAPID CITY     FAIR      85  67  54 SE13      30.07F
$$

  *****  SOME WEATHER IN NEARBY STATES *****

CITY           SKY/WX    TMP DP  RH WIND       PRES   REMARKS
GLASGOW MT     NOT AVBL
GREAT FALLS MT FAIR      75  35  23 SW10      29.96S
CHEYENNE WY    FAIR      76  55  48 S10       30.29F
SCOTTSBLUFF NE FAIR      75  63  66 NW7       30.16S
OMAHA NE       PTSUNNY   92  69  47 VRB3      29.97R HX  97
DES MOINES IA  PTSUNNY   90  72  55 W7        29.96S HX  97
DAVENPORT IA   FAIR      79  73  82 S7        30.01F
CHICAGO IL     PTSUNNY   78  70  76 SW15G21   29.96F
EAU CLAIRE WI  FAIR      76  69  79 SW6       30.02R
LA CROSSE WI   FAIR      82  71  69 N6        30.01R
$$

  *****  SOME NATIONAL WEATHER *****

CITY           SKY/WX    TMP DP  RH WIND       PRES   REMARKS
LA GUARDIA NY  PTSUNNY   93  68  43 W9        29.95F HX  97
RALEIGH NC     FAIR      93  67  42 N6        30.08F HX  96
ATLANTA GA     FAIR      88  69  53 NW9       30.14S HX  92
NEW ORLEANS LA FAIR      90  76  63 N7        30.12S HX 101
OKLAHOMA CITY  FAIR      91  68  46 SW13      30.10F HX  95
ALBUQUERQUE NM PTSUNNY   77  53  43 CALM      30.31S
SALT LAKE CITY PTSUNNY   87  55  33 SE17      30.08S
LOS ANGELES CA FAIR      74  65  73 VRB6      30.01R
BOISE ID       FAIR      74  45  35 VRB3      30.05R
SEATTLE WA     PTSUNNY   62  55  77 S12       30.12R
$$

*** WEATHER ACROSS MANITOBA...SASKATCHEWAN AND ONTARIO ***
                ***ONTARIO***

CITY           SKY/WX    TMP DP  RH WIND       PRES   REMARKS
GERALDTON      PTSUNNY   72  61  68 NW8       29.85R
THUNDER BAY    MOSUNNY   77  61  57 W16       29.89R
SIOUX LOOKOUT  MOSUNNY   70  48  46 NW6       29.97R
TORONTO        CLOUDY    61  59  94 NE13      30.01F
BIG TROUT LK   MOSUNNY   63  46  55 NW10G20   29.79R
PICKLE LAKE    MOSUNNY   68  50  52 W12G21    29.89R
DRYDEN         SUNNY     68  52  56 N8        29.99S
KENORA         PTSUNNY   68  48  49 VRB3      30.02S
$$
                *** MANITOBA***

CITY           SKY/WX    TMP DP  RH WIND       PRES   REMARKS
BRANDON        MOSUNNY   70  54  56 VRB2      30.00F
DAUPHIN        SUNNY     72  57  60 W8        29.98F
ISLAND LAKE    MOSUNNY   64  50  59 W10       29.87S
PILOT MOUND      N/A     68  57  68 S6          N/A
THE PAS        MOSUNNY   66  52  59 NE8       29.94R
THOMPSON       MOSUNNY   59  41  51 NW10G18   29.91R
WINNIPEG       MOSUNNY   70  57  64 NW3       30.02R
LYNN LAKE      SUNNY     57  37  47 N13G20    29.96S
CHURCHILL      PTSUNNY   50  41  71 N22G30    29.76R
GILLAM         PTSUNNY   55  39  54 N16G24    29.83R
$$
                ***SASKATCHEWAN***

CITY           SKY/WX    TMP DP  RH WIND       PRES   REMARKS
ESTEVAN        MOSUNNY   75  55  50 SE12      29.98F
KINDERSLEY     MOSUNNY   68  55  64 E10       29.91F
LLOYDMINSTER   MOSUNNY   68  57  68 E9        29.94F SMOKE
PRINCE ALBERT  CLOUDY    70  59  68 SE5       29.95S
REGINA         MOSUNNY   73  52  46 SE15      29.96F
YORKTON        SUNNY     70  54  56 S9        29.98F
N. BATTLEFORD  SUNNY     68  59  73 E5        29.96S
LA RONGE       MOSUNNY   66  54  63 NE6       29.97R
SASKATOON      PTSUNNY   72  55  56 VRB2      29.96S
SWIFT CURRENT  SUNNY     75  54  46 SE13      29.95S
$$
NOTE: THESE ARE AUTOMATED STATIONS WITH LIMITED QUALITY CONTROL
      "FAIR" INDICATES FEW OR NO CLOUDS BELOW 12,000 FEET WITH NO
      SIGNIFICANT WEATHER AND/OR OBSTRUCTIONS TO VISIBILITY.
      SKY/WX - SKY CONDITION AND SIGNIFICANT WEATHER.
      TMP - AIR TEMPERATURE.    DP   - DEWPOINT TEMPERATURE.
      RH  - RELATIVE HUMIDITY.  PRES - PRESSURE.
      HX  - HEAT INDEX.         WCI  - WIND CHILL INDEX.
$



USA.gov is the U.S. government's official web portal to all federal, state and local government web resources and services.